Location: Cazavet
(43.0017°N, 1.0431°E)
Time: 08:45:20
(UTC+00:00)

Cosmos 44 - Pass Details

Date: 18 January 2026
Orbit: 570 x 780 km, 65.1° (Epoch: 10 February)

Event Time Altitude Azimuth Distance (km) Brightness Sun altitude
Exits shadow 05:46:57 22° 320° (NW) 1,658 4.8 -17.3°
Maximum altitude 05:50:30 73° 240° (WSW) 816 3.5 -16.6°
Drops below altitude 10° 05:55:50 10° 156° (SSE) 2,317 6.5 -15.7°
Sets 05:58:14 0° 154° (SSE) 3,229 7.3 -15.2°
